Location: Balsareny
(41.8670°N, 1.8830°E)
Time: 17:40:40
(UTC+02:00)

X-37B - Visible Passes

Search period start: 25 May 2020 00:00
Search period end: 04 June 2020 00:00
Orbit: 389 x 390 km, 44.9° (Epoch: 18 May)

Date Brightness Start Highest point End Pass type
(mag) Time Alt. Az. Time Alt. Az. Time Alt. Az.
28 May ? 05:02:29 10° SSE 05:03:45 12° SE 05:05:03 10° ESE visible
29 May ? 05:39:12 10° SW 05:42:10 37° SSE 05:45:09 10° E visible
30 May ? 04:43:39 20° SSE 04:44:26 22° SE 04:46:58 10° E visible
31 May ? 03:48:09 10° ESE 03:48:09 10° ESE 03:48:11 10° ESE visible
31 May ? 05:20:27 15° WSW 05:22:59 65° SSE 05:26:09 10° ENE visible
01 Jun ? 04:24:54 37° SSE 04:25:09 38° SSE 04:28:09 10° E visible
02 Jun ? 03:29:18 14° E 03:29:18 14° E 03:29:58 10° E visible
02 Jun ? 05:01:35 18° WSW 05:03:50 79° NNW 05:07:02 10° ENE visible
03 Jun ? 04:05:58 68° SSE 04:05:58 68° SSE 04:09:06 10° ENE visible
03 Jun ? 05:39:37 10° W 05:42:43 47° N 05:45:50 10° ENE visible
